Showing default

QIANFAN-26, 61559

Orbit data source: Space-Track

QIANFAN-26, 61559 is a Chinese payload satellite in LEO that was launched on Tue, 15 Oct 2024 UTC via a CHANG ZHENG 6A launch vehicle from the Taiyaun Space Center, China (TSC). Payloads include a variety of satellites, spacecraft, and rockets equipped with specific instruments for various scientific and technological missions. These include communications satellites like Starlink; space stations such as the ISS; scientific satellites like the Hubble; Earth observation satellites from companies like Planet Labs, Umbra, and HawkEye 360; GPS; miniature CubeSats for education and research; and military/defense satellites.

Loading next visibility...
QIANFAN-26 details
Identifier
61559, 2024-185H
Orbit
LEO
Last TLE update12 hours ago
Origin
Flag of CNYUANX (CN / PRC)
ManufacturerGESIH/SECM
MissionOperational Commercial Communications
Bus & MotorQIANFAN, Unknown motor
Mass300 kg wet, ~300 kg dry
Launch date (UTC)
2024-10-15 (4 months ago)
Launch vehicle
CHANG ZHENG 6A
Launch site
Taiyaun Space Center, China (TSC)
Object type
Payload
Rocket body
Debris
Shape & HBRBox + 1 Pan, 10 m
Radar Cross Section13.200 m², Large (>1 m²)

Expand to show TLE details & history

TLE from 12 hours ago
0 QIANFAN-26
1 61559U 24185H   25035.79356470  .00000730  00000-0  40772-3 0  9995
2 61559  88.9880 113.3925 0004508 209.6175 150.4755 14.09775347 25809
Epoch: 2025-02-04T19:02Z
Definitive object data (Epoch: 2025-02-04T19:02:43.99Z)
Latitude0.00004°
Longitude52.51546°
Altitude866.019 km
Speed7.418 km/s
True Right ascension07h 33m 34s
True Declination0° 00' 00"
Sunlit
Object was in full shadow at TLE epoch
Visualization TLE readout
Latitude-31.28324°
Longitude51.84834°
Altitude873.644 km
Speed7.413 km/s
Apparent Right ascension04h 24m 59s
Apparent Declination-73° 24' 26"
Sunlit
Object is in full shadow
Visualization observer readout
Local Sidereal Time08:51:34
Azimuth197.983° SSW
Elevation-31.879°
Doppler factor1
Orbital elements
Apogee altitude860.368 km
Perigee altitude853.845 km
Semi-major axis7,235.244 km
Eccentricity0.0004508
Inclination88.988°
RAAN113.3925°
Arg. of periapsis209.6175°
True anomaly150.50094°
Mean anomaly150.4755°
Eccentric anomaly150.48822°
Mean motion3.52666 °/min
BSTAR0.00040772
Orbital period102.08 mins
Loading maneuver chart data...
Loading historical data...
Loading historical data...
Loading historical data...
Loading historical data...
Loading historical data...
Loading historical data...
Loading historical data...

QIANFAN-26 Visibility forecast

Observer location: undefined°, undefined

Span
Click to sort rows by Start time (UTC) header in descending order
Start Az.
Max El. time (UTC)
Max El. Az.
Max El.
End time (UTC)
End Az.
4 mins2025-02-05 07:08:20.479Z265.109° W2025-02-05 07:10:20.479Z287.183° WNW12.374°2025-02-05 07:12:20.479Z308.52° NW
6 mins2025-02-05 16:06:20.479Z49.62° ENE2025-02-05 16:08:20.479Z74.828° E17.743°2025-02-05 16:12:20.479Z121.692° SE
9 mins2025-02-05 17:47:20.479Z345.46° N2025-02-05 17:51:20.479Z266.088° W38.666°2025-02-05 17:56:20.479Z200.843° SSW
9 mins2025-02-06 05:14:20.479Z166.247° S2025-02-06 05:18:20.479Z77.631° E43.372°2025-02-06 05:23:20.479Z4.306° NNE
|